GFSCGP_850_spd_000.txt.gz
Wind_Speed
20 15 17 19 18 17 15 13 17 16 18 25 13 16 18 22 21 19 21 19 19 18 20 17 16 16 17 16 12 12 9 12 10 10 7 7 8 8 8 9 12 14 15 16
16 20 21 18 20 20 19 11 12 13 16 11 16 20 18 18 20 23 23 21 20 21 22 20 19 16 16 16 12 11 9 8 7 4 4 5 6 7 10 10 11 11 8 9
20 22 22 18 16 16 16 11 10 15 12 4 12 18 13 15 18 22 23 23 23 24 25 26 23 21 18 17 15 14 11 6 6 4 5 5 2 7 6 2 2 3 10 14
23 23 21 18 17 17 18 12 18 15 14 11 15 13 18 23 18 15 23 25 26 26 27 26 25 24 22 20 18 16 15 11 5 7 4 8 9 7 8 10 10 15 19 19
22 21 23 21 19 16 12 16 18 13 11 14 14 9 15 16 16 16 24 27 27 29 29 28 26 24 24 21 21 18 15 14 13 6 8 7 5 7 3 7 13 16 8 12
22 21 19 20 20 16 18 10 17 9 11 14 17 12 6 9 17 17 12 25 29 29 30 29 29 29 26 24 21 18 21 14 8 4 1 1 1 4 8 9 9 5 7 6
23 25 15 14 18 20 18 11 8 9 11 13 15 15 10 19 22 21 23 49 31 30 29 28 31 34 31 27 24 23 19 13 9 6 6 3 4 5 3 5 5 9 5 6
16 18 20 16 21 15 13 16 9 13 12 13 13 9 16 10 18 39 37 41 34 34 32 32 31 34 34 30 27 23 20 15 11 9 9 6 3 3 2 6 11 12 6 7
18 21 21 22 17 16 15 17 18 18 13 6 7 9 11 9 9 6 10 14 27 34 34 35 33 33 34 30 30 26 23 17 13 12 11 4 3 3 6 12 13 4 6 8
18 15 21 17 16 16 16 17 13 12 9 10 8 9 10 15 10 11 10 7 9 27 34 32 34 35 35 31 29 28 26 21 15 16 9 3 6 7 7 6 6 7 9 11
25 18 19 21 15 21 15 11 9 12 10 9 9 4 13 11 8 7 8 10 5 12 25 32 29 33 36 31 31 30 26 23 19 17 13 12 10 7 8 8 6 8 10 12
25 8 13 27 20 23 21 16 10 9 9 8 9 5 13 11 10 11 8 3 6 5 16 30 29 30 34 32 32 31 26 25 21 17 13 9 8 7 10 10 8 10 11 12
18 13 10 14 19 20 18 16 20 17 13 13 11 5 7 7 7 7 6 4 10 14 13 26 26 30 34 34 33 31 29 24 20 17 16 11 10 9 9 9 8 9 12 11
18 19 13 14 16 17 22 22 22 20 12 14 12 6 11 11 9 10 7 7 8 16 18 26 27 31 37 38 39 34 32 25 22 19 15 11 12 11 9 9 9 12 10 13
14 11 16 18 20 19 17 23 21 20 19 17 11 8 3 3 8 2 1 4 8 8 21 27 31 32 37 37 38 35 32 26 22 22 16 14 15 13 9 10 11 10 11 14
11 8 11 18 18 18 21 23 23 24 23 23 20 16 21 19 16 9 1 6 10 8 14 16 33 35 35 38 39 36 32 29 25 19 18 15 15 13 12 11 13 13 14 17
14 13 13 16 17 20 20 21 21 18 17 15 13 5 12 11 4 2 2 6 9 11 13 19 22 30 31 38 38 35 34 29 26 24 19 17 18 15 15 14 13 15 16 16
10 14 12 14 17 20 17 19 17 14 15 15 16 17 8 8 2 3 1 8 7 12 14 17 14 18 28 33 34 32 30 28 24 24 19 18 18 17 17 17 15 16 16 16
12 5 11 14 15 14 20 5 8 15 16 10 7 9 4 6 4 8 15 7 3 7 9 14 13 18 25 31 30 29 27 26 27 27 23 21 19 19 20 19 17 17 17 17
23 27 18 4 11 18 15 10 6 17 12 18 21 3 10 6 5 6 12 5 2 5 6 8 11 15 25 31 30 30 29 27 27 24 22 20 20 20 20 19 17 16 18 20
14 8 11 11 12 17 13 7 15 7 9 20 3 10 8 4 10 11 3 4 5 6 6 7 12 17 27 30 28 30 30 29 27 22 21 19 20 20 20 20 18 20 22 28
16 4 9 12 15 17 12 11 10 10 11 7 11 14 8 4 5 10 16 9 11 10 10 11 14 20 24 24 25 28 26 24 21 19 18 18 19 20 17 17 18 19 22 22
9 9 7 3 2 24 15 21 23 10 10 9 6 5 6 8 10 12 14 22 15 14 13 15 19 17 17 24 25 17 15 13 14 11 13 18 17 16 20 21 18 20 20 19
6 9 0 5 7 5 13 20 15 12 7 4 3 4 8 11 13 13 13 19 13 13 16 15 18 20 22 22 20 15 18 15 13 14 16 14 18 21 19 21 19 13 15 17
14 5 5 11 11 16 18 12 9 9 8 9 9 10 12 14 14 14 14 9 8 8 12 14 18 19 17 10 18 9 17 12 16 12 10 15 13 14 17 23 17 13 18 20
10 3 1 9 13 12 14 9 11 10 10 9 10 10 11 12 15 10 7 8 10 11 11 13 12 11 7 5 11 5 18 14 12 7 8 10 12 11 12 10 9 9 13 16

GFSCGP_850_spd_003.txt.gz
Wind_Speed
18 3 7 12 12 12 10 11 9 6 10 7 8 17 18 25 25 21 23 26 26 23 25 24 17 18 20 15 15 12 10 12 11 8 7 6 5 6 4 6 7 9 11 12
7 9 13 16 17 11 10 11 12 13 13 8 10 16 16 13 18 31 26 27 29 28 31 24 20 22 22 20 18 17 14 14 10 6 2 2 2 2 4 6 6 9 9 8
11 10 18 20 17 12 11 7 15 12 13 10 10 4 2 6 19 24 31 31 30 31 32 30 26 24 27 25 20 15 13 10 9 6 4 3 3 2 6 6 7 9 9 12
11 16 21 20 18 11 7 6 6 12 20 9 10 6 5 13 12 17 29 33 32 35 35 32 29 27 27 26 20 16 15 13 8 7 6 6 4 5 3 7 6 7 14 9
14 16 19 20 16 8 8 9 6 6 4 5 12 5 12 13 11 7 19 32 34 41 39 37 32 29 29 26 23 21 18 15 12 13 13 11 10 9 8 7 10 12 3 7
12 23 15 15 13 11 6 3 5 7 1 1 7 8 5 14 17 19 22 34 36 40 42 38 34 32 32 29 27 24 23 22 20 16 10 8 5 10 16 13 14 9 4 6
13 20 16 17 8 9 5 4 2 2 1 6 8 7 9 21 19 21 23 34 36 46 45 44 41 40 39 35 30 30 28 25 19 16 9 0 3 2 5 6 6 5 6 4
9 13 19 15 10 11 8 9 6 5 4 8 10 6 4 21 31 34 33 40 34 41 47 49 45 45 43 40 35 34 30 25 21 16 12 7 4 7 7 7 9 8 7 8
10 13 13 12 6 10 10 5 9 5 5 3 4 5 7 17 15 21 32 29 30 34 42 49 49 49 46 43 39 37 33 27 23 19 17 9 6 8 12 11 11 11 10 8
13 7 14 9 12 12 11 7 2 3 2 5 5 2 5 8 9 13 13 25 35 43 38 45 49 49 49 46 42 38 34 29 24 21 19 11 6 4 5 7 5 4 5 7
19 8 14 11 8 9 2 4 4 6 5 5 3 4 5 10 10 11 11 19 28 45 39 44 47 50 51 48 44 40 36 32 26 23 19 13 12 11 10 6 4 3 5 7
23 5 11 14 8 13 9 9 9 5 4 1 6 5 9 11 9 15 16 20 16 15 40 45 47 51 50 49 45 42 38 35 31 26 21 18 18 16 13 10 8 7 8 8
15 13 10 6 8 12 15 9 8 7 4 4 3 3 2 7 7 18 19 22 21 18 19 35 44 50 51 50 47 43 40 37 32 28 25 21 19 14 15 15 11 8 7 7
18 7 8 7 9 11 11 13 8 9 5 6 6 7 5 6 5 14 17 13 16 18 19 28 44 48 50 50 48 44 40 38 33 30 26 22 18 14 11 10 9 7 6 7
14 8 7 8 7 3 9 6 9 8 8 8 7 10 11 11 8 12 12 8 8 15 23 31 42 44 47 48 48 45 42 39 33 29 24 22 20 15 12 11 9 7 7 7
7 6 4 2 2 5 6 15 14 17 13 7 8 7 13 26 24 14 15 13 8 5 11 24 38 41 45 49 51 49 46 41 34 29 26 23 20 19 17 13 10 10 10 12
9 6 4 5 1 6 6 5 5 8 14 16 12 8 6 9 9 14 13 8 3 6 6 6 6 36 41 48 50 50 45 37 33 31 27 26 24 21 18 15 14 14 16 16
5 5 4 4 3 6 6 8 5 15 13 16 9 13 13 17 20 15 13 10 8 8 8 8 12 11 30 42 47 47 43 41 35 35 28 26 24 22 19 18 18 18 18 18
5 5 6 5 6 4 5 8 3 4 3 9 17 13 25 28 24 15 9 22 14 9 3 4 7 9 22 34 41 45 42 39 38 31 28 27 24 22 21 23 21 20 21 21
12 9 6 4 5 0 7 6 10 6 4 5 18 11 6 12 6 3 14 13 10 7 5 3 5 9 21 31 39 42 40 37 35 30 28 24 24 24 25 24 23 24 24 24
3 5 5 5 3 7 9 14 20 5 7 13 16 23 19 5 8 11 8 3 8 8 9 6 7 10 22 33 36 35 30 34 32 26 21 21 24 24 24 22 24 25 24 23
7 3 1 4 4 4 20 10 5 2 20 21 19 17 17 11 11 8 4 9 11 12 14 14 14 18 20 33 36 33 30 28 18 23 23 25 25 21 21 23 23 23 18 16
5 3 4 2 5 4 9 12 26 23 20 17 16 13 12 13 10 10 12 13 17 13 20 20 19 18 26 31 33 32 16 31 27 18 26 22 18 20 20 23 23 18 13 16
5 2 3 1 4 4 14 12 18 25 24 15 11 13 14 15 14 12 12 14 17 14 21 21 27 29 29 22 23 21 21 8 6 9 8 26 16 12 14 17 13 14 18 15
2 3 2 4 10 7 10 7 7 12 20 22 15 14 13 12 13 12 9 4 8 14 23 25 26 27 25 23 23 21 13 10 9 2 11 19 23 24 20 19 16 15 15 17
6 6 4 2 3 9 10 10 11 12 12 8 10 13 9 9 10 6 8 7 9 12 16 20 24 24 25 19 9 2 5 5 16 15 12 21 14 10 12 12 12 11 8 10

GFSCGP_850_spd_006.txt.gz
Wind_Speed
6 3 6 9 8 6 4 8 14 11 11 7 15 13 19 25 24 24 27 29 31 35 35 31 27 24 21 20 19 18 19 14 13 10 8 9 6 6 7 6 6 9 9 9
4 7 11 6 5 6 4 7 9 1 10 7 13 18 18 23 28 31 29 31 35 32 33 32 29 26 26 22 19 20 17 15 12 10 9 7 5 5 6 4 7 8 6 6
7 8 6 5 8 5 6 8 10 11 5 7 11 1 9 15 22 25 27 39 41 38 37 35 31 26 27 25 22 21 17 17 14 12 10 8 8 7 8 7 8 6 6 8
6 14 9 8 8 6 8 10 14 9 15 7 7 5 7 16 15 12 23 31 37 40 38 37 33 28 30 29 24 21 19 18 16 13 12 11 10 11 11 7 9 7 7 9
9 10 12 11 16 7 12 8 11 11 15 7 3 5 11 8 9 11 20 36 43 43 43 43 39 33 30 30 27 22 23 20 17 16 13 11 13 13 12 10 10 9 7 3
10 17 8 11 18 10 13 5 6 5 5 2 12 7 4 10 25 20 17 33 36 43 46 45 40 36 32 33 29 26 27 24 20 16 12 14 13 14 14 14 13 12 14 8
4 16 12 12 7 8 4 6 2 2 1 6 8 9 12 20 24 17 22 35 40 45 47 48 44 42 38 38 35 31 30 28 25 20 18 15 14 10 13 17 17 17 11 9
9 11 14 6 11 11 8 10 6 7 3 6 9 7 11 17 35 33 34 44 43 43 48 52 49 47 43 41 39 36 35 33 29 25 24 19 9 7 10 12 10 9 9 11
6 8 8 11 12 10 9 4 10 7 1 3 4 8 7 7 16 21 26 32 39 43 47 52 52 48 47 46 44 43 40 38 33 30 28 21 11 9 10 9 8 11 13 12
8 5 8 14 5 7 16 7 3 3 7 4 5 4 6 5 11 11 12 25 37 40 45 49 53 52 50 49 47 45 44 42 37 33 30 23 16 11 10 11 11 12 13 11
13 5 15 2 6 11 2 3 4 6 5 6 3 6 7 16 17 17 17 32 33 42 48 51 53 54 53 52 51 49 47 44 40 36 32 25 21 16 10 9 10 10 10 9
10 7 14 18 12 8 9 10 7 6 5 2 5 6 5 13 12 23 26 32 35 41 47 52 54 54 56 56 56 53 51 47 42 39 34 29 23 17 12 11 11 9 7 7
12 6 8 9 7 3 8 6 7 5 5 7 6 5 2 5 4 18 23 29 29 30 42 48 50 52 56 59 59 56 54 49 43 40 36 30 27 20 16 15 14 10 10 9
18 6 10 15 9 5 6 8 7 8 5 6 6 5 4 7 10 10 28 32 29 28 31 41 45 53 57 57 60 59 56 51 45 41 39 34 30 23 18 15 13 13 12 11
11 10 7 9 18 10 15 14 9 6 9 9 8 11 10 11 13 20 32 29 25 27 29 37 42 48 50 51 55 57 56 53 47 45 41 36 29 25 21 16 14 15 15 13
6 8 10 17 9 8 8 6 11 7 5 1 7 7 10 21 24 22 33 32 27 22 20 19 29 42 47 49 52 55 58 55 49 44 43 36 30 27 24 17 16 16 18 16
10 7 5 9 7 7 4 5 5 1 4 5 7 12 11 5 7 19 24 24 23 17 11 7 11 29 39 47 51 54 55 55 51 48 42 35 31 27 28 20 17 18 20 18
6 8 3 5 4 5 7 2 13 10 5 7 6 8 19 16 26 25 28 25 18 14 11 9 8 11 20 33 47 50 52 55 49 45 36 34 31 27 30 22 21 22 22 20
2 5 4 5 5 4 3 4 6 7 4 6 3 7 12 30 21 6 19 18 15 14 12 10 11 15 18 23 39 48 49 51 47 44 34 36 31 30 30 25 24 24 23 22
10 8 5 3 6 4 2 6 7 8 6 8 8 9 8 14 7 3 14 17 14 17 12 7 12 15 18 21 26 39 46 48 50 46 34 36 33 31 29 27 26 24 22 22
5 5 4 3 4 1 5 8 1 8 6 9 18 16 14 7 7 11 16 16 10 7 9 11 15 16 17 19 25 36 44 46 41 35 32 31 30 34 32 27 24 22 22 24
4 3 3 4 4 4 22 10 7 4 15 22 20 20 20 15 15 14 10 8 4 12 18 19 21 20 18 19 26 36 41 43 37 31 30 21 18 31 36 25 22 21 24 26
3 5 4 4 3 6 17 13 18 19 24 29 26 20 17 13 9 3 3 7 13 16 12 24 27 23 22 25 30 35 38 35 34 30 23 9 11 17 31 11 20 25 26 24
5 2 4 6 5 5 8 16 20 27 29 29 28 21 18 16 14 12 9 10 15 21 19 20 30 25 25 27 29 35 33 27 28 21 14 23 15 9 18 25 25 28 22 17
4 2 6 2 2 7 9 7 21 16 15 9 9 9 11 10 16 17 18 14 12 18 20 18 28 27 27 30 30 32 22 14 7 5 2 5 12 15 18 25 22 19 17 14
3 6 5 4 6 6 1 13 15 21 16 11 9 5 13 11 2 3 5 12 10 10 12 13 22 24 25 24 22 17 12 11 6 7 6 8 11 25 19 22 24 21 17 12

GFSCGP_850_spd_009.txt.gz
Wind_Speed
5 4 7 11 8 7 9 6 15 10 7 5 6 10 20 28 27 26 29 29 31 36 38 35 33 30 28 23 21 22 21 18 18 19 18 17 14 12 13 13 12 14 14 11
2 8 10 8 7 8 7 6 8 2 8 6 4 8 18 23 29 33 32 32 36 38 37 38 36 33 30 25 23 21 20 19 19 18 14 12 10 11 10 11 11 10 7 6
7 6 8 7 6 8 5 6 6 8 7 6 9 3 9 13 16 24 27 34 32 40 41 40 39 36 31 28 25 24 22 21 19 14 13 14 13 11 11 10 10 8 7 7
6 9 8 5 5 7 4 9 8 10 15 8 6 5 9 12 15 13 24 29 36 40 41 42 42 39 33 28 25 24 25 23 21 17 17 14 11 11 11 11 12 11 9 7
8 6 6 5 7 7 10 8 9 9 13 6 5 4 6 11 10 20 25 31 36 40 45 44 45 39 32 28 29 26 27 25 22 21 19 15 13 13 12 12 12 13 10 9
11 6 6 9 5 9 2 4 7 5 4 5 12 7 5 12 26 26 23 30 36 42 48 45 44 40 33 31 30 28 28 27 24 23 20 17 15 12 13 14 15 14 10 9
2 6 3 4 4 3 5 7 3 3 2 6 8 4 9 19 25 25 27 34 38 41 46 49 47 45 38 36 35 34 33 31 30 26 22 18 15 14 14 15 15 15 12 13
6 9 8 3 8 7 7 10 7 7 4 6 6 7 9 16 30 35 30 37 35 41 48 52 50 49 45 40 40 39 37 36 35 31 26 21 16 15 13 15 17 15 13 11
7 8 4 5 6 11 4 4 9 6 1 4 4 6 8 6 12 22 28 28 35 42 48 51 51 50 49 44 44 43 42 40 39 35 30 26 21 18 16 13 13 13 13 11
9 2 6 5 6 6 12 7 2 2 6 5 4 4 5 7 8 11 13 25 36 40 44 46 49 52 53 50 45 44 44 44 42 39 35 30 26 22 15 17 16 14 13 14
8 6 6 6 8 9 3 3 3 5 4 7 4 7 8 7 9 17 20 37 37 40 44 48 51 51 56 55 50 47 48 47 46 43 40 35 31 28 18 17 16 14 13 14
11 7 11 13 5 3 7 10 9 6 6 1 5 7 5 9 9 18 24 29 37 43 44 46 49 50 54 58 55 53 52 51 49 46 43 39 33 31 24 19 16 14 14 14
9 4 5 8 4 1 5 6 6 3 4 8 7 6 2 4 6 19 23 30 38 42 41 46 47 49 52 56 58 57 57 54 52 50 46 42 36 33 29 24 19 16 15 13
19 5 12 15 9 6 5 6 8 8 5 6 7 6 4 7 9 9 24 30 39 41 42 45 45 49 52 54 56 56 57 57 55 53 49 47 44 39 33 26 19 18 16 14
13 13 8 18 16 7 7 7 7 9 11 10 9 11 10 13 13 20 34 32 33 37 39 44 48 48 48 49 50 52 55 57 58 57 53 51 48 41 33 27 20 18 19 17
3 8 9 13 10 14 10 16 12 16 3 5 7 7 8 15 6 9 28 31 33 34 35 35 35 40 42 44 48 48 50 53 56 58 57 53 43 34 33 27 23 21 20 22
4 7 6 17 6 6 5 9 10 7 5 5 6 10 6 4 8 19 30 37 40 34 30 29 30 30 29 30 35 43 46 48 51 54 55 48 44 44 32 30 30 23 23 23
5 6 2 11 6 7 6 3 11 11 3 2 5 4 9 13 35 30 28 46 35 26 21 18 14 11 13 17 24 33 40 44 47 49 50 52 43 42 30 33 31 25 26 24
4 4 3 6 6 3 4 5 5 4 2 5 3 2 5 10 14 4 18 23 27 25 20 16 12 6 9 15 20 24 33 38 41 44 47 44 36 36 26 31 28 29 29 26
1 6 4 2 7 6 2 7 18 11 3 7 6 5 6 12 8 3 14 17 18 16 16 13 5 9 10 14 18 23 30 35 38 40 38 35 30 25 28 30 29 30 29 23
5 5 4 3 4 2 6 17 10 7 5 9 8 13 21 6 7 15 10 11 12 13 10 4 7 9 13 15 19 22 25 30 33 34 35 34 32 29 34 39 32 26 20 30
2 3 3 2 4 3 19 7 6 2 6 17 19 26 31 25 22 19 18 14 10 7 8 11 11 19 19 22 25 23 23 25 27 27 31 31 27 27 24 23 22 12 18 30
3 3 3 2 5 4 10 6 13 10 25 28 34 28 30 30 27 24 21 16 13 11 8 15 18 22 27 31 29 24 24 22 22 24 25 28 22 18 15 11 13 20 15 19
1 8 4 2 1 4 8 15 16 21 25 25 25 24 25 24 20 19 17 19 19 18 20 23 21 30 28 30 26 23 22 20 18 18 22 19 11 7 16 18 26 19 16 21
3 2 8 2 3 4 10 19 21 19 14 15 17 17 16 9 9 9 22 30 26 20 24 25 22 25 17 19 15 15 15 18 19 13 14 7 10 10 15 24 24 17 18 19
3 5 4 4 10 12 6 13 18 22 18 19 19 15 14 18 16 7 3 13 11 8 11 17 15 12 11 15 17 16 16 15 13 14 19 11 24 20 27 20 14 14 19 19

GFSCGP_850_spd_015.txt.gz
Wind_Speed
7 9 16 18 16 9 14 14 16 8 10 11 12 12 6 17 20 22 23 25 27 29 28 26 28 28 29 29 26 26 24 23 22 20 20 20 20 17 17 16 15 15 14 13
6 16 14 15 13 9 14 17 14 8 11 12 10 13 8 17 24 26 26 26 27 27 26 28 29 30 32 31 29 27 27 23 25 23 21 20 17 17 16 16 16 15 13 12
13 7 10 12 12 12 13 18 15 13 10 4 8 14 12 13 21 25 26 26 26 28 28 28 30 32 32 33 32 29 25 23 26 25 23 22 20 19 18 16 15 12 11 11
10 7 17 14 17 14 17 13 16 14 13 13 12 12 12 17 18 22 28 30 30 29 28 27 29 33 34 33 31 31 26 24 26 26 26 24 22 17 14 12 10 11 12 11
9 11 12 20 20 13 10 11 16 17 18 7 10 7 11 10 17 23 31 34 35 33 31 31 31 32 34 31 33 33 29 27 28 27 27 24 23 20 16 14 13 14 14 14
14 3 13 14 14 17 10 11 6 5 9 9 16 14 11 9 16 24 28 34 37 35 34 33 31 32 34 34 34 34 33 30 30 29 29 28 25 21 18 16 14 15 16 17
12 12 7 9 15 12 12 13 7 9 7 9 9 12 16 11 19 22 20 35 39 36 34 34 33 35 38 38 37 36 36 34 32 33 33 31 27 23 19 16 15 15 15 15
14 14 16 14 15 13 19 21 10 16 12 12 5 11 8 20 27 18 19 19 28 36 36 36 41 40 40 40 37 36 39 37 36 36 37 34 30 27 24 21 18 17 16 13
12 15 4 11 9 17 11 13 16 9 2 7 7 6 11 14 13 13 22 20 27 33 39 42 39 42 41 40 38 38 40 39 39 40 38 37 34 31 27 23 18 17 17 16
9 5 15 12 12 9 13 14 11 8 18 17 8 5 6 6 11 15 12 24 30 33 35 37 42 46 44 41 40 40 39 39 42 42 42 41 38 33 28 25 23 17 18 18
12 12 5 9 15 22 8 9 3 7 8 15 15 13 8 13 13 12 15 26 28 31 35 38 42 48 46 43 43 44 43 42 41 45 46 45 43 35 31 31 23 23 19 19
13 10 12 18 4 10 21 20 18 11 12 6 10 13 6 14 14 13 18 16 19 26 31 33 32 34 39 46 45 45 46 47 45 45 48 49 47 41 40 34 31 23 22 18
9 5 8 9 12 14 9 18 21 17 11 17 15 12 4 6 10 20 19 18 15 21 24 27 28 32 37 39 44 47 49 50 49 49 49 51 50 47 46 41 31 21 18 17
11 8 10 15 19 16 15 15 16 20 15 15 16 18 10 11 13 16 20 25 19 19 24 27 28 32 33 33 36 41 44 45 44 48 51 52 52 50 45 45 33 28 21 10
8 10 17 24 23 25 24 22 22 18 23 19 19 20 17 15 17 22 28 20 16 19 23 32 32 32 33 34 34 35 36 38 40 44 49 52 49 48 48 47 41 42 38 34
5 3 3 19 23 23 27 26 24 25 27 20 22 13 12 16 15 16 20 19 20 25 30 31 31 33 34 33 32 30 29 30 31 35 38 39 42 44 45 47 46 46 45 34
4 0 2 9 14 18 21 25 24 19 21 22 20 16 10 12 15 17 24 24 27 29 29 31 36 37 34 29 26 23 21 20 22 24 28 30 33 36 37 40 44 46 41 34
4 2 2 9 3 10 17 22 26 25 21 19 17 13 13 15 20 17 21 25 30 26 27 30 32 30 21 17 14 12 10 8 11 17 20 24 24 27 29 31 40 43 33 23
9 4 1 4 8 11 5 6 12 20 24 18 19 18 13 9 4 7 13 23 20 23 19 12 14 16 13 13 10 7 4 4 8 12 14 17 19 22 24 27 36 42 31 22
14 10 6 1 5 5 7 11 10 4 14 14 13 13 9 11 9 4 4 8 13 11 13 17 21 21 19 17 14 10 6 4 5 5 6 9 12 15 17 25 34 41 34 26
7 3 5 4 5 3 12 19 7 10 5 6 9 11 12 7 1 11 15 21 23 24 26 27 23 21 17 13 9 7 7 7 8 9 9 11 11 14 14 20 24 37 31 25
9 8 4 2 5 5 25 11 5 7 4 9 17 30 31 24 23 26 27 29 31 31 30 26 23 19 14 9 4 1 6 10 13 9 11 14 16 16 14 17 24 27 20 22
7 6 7 5 4 9 12 7 9 4 15 18 24 31 35 28 22 20 23 23 24 23 23 19 15 11 10 10 10 7 3 4 6 12 14 14 17 17 17 15 20 19 21 23
3 3 6 6 5 5 9 8 9 13 18 18 19 22 33 30 23 19 22 22 21 18 20 18 15 11 10 9 8 6 7 8 8 13 14 16 17 16 16 13 14 15 19 20
3 1 10 4 13 7 8 7 8 12 16 23 24 23 25 29 33 24 23 23 21 20 20 18 16 16 15 13 10 10 10 9 11 14 17 17 16 18 17 19 19 18 15 13
9 3 4 6 10 2 5 10 13 18 15 17 25 26 22 23 26 23 26 23 22 19 17 15 13 12 12 12 10 10 11 12 11 14 15 16 17 16 14 14 14 10 9 11

GFSCGP_850_spd_021.txt.gz
Wind_Speed
25 18 24 27 25 24 23 21 18 15 24 19 17 14 13 17 19 19 24 23 25 26 26 26 26 25 24 23 22 23 22 22 20 19 16 13 12 12 14 15 17 15 12 11
17 24 25 25 26 25 28 23 17 13 21 20 18 19 18 17 16 19 22 26 26 26 27 27 27 28 27 26 24 24 24 24 23 18 17 16 13 13 13 14 10 10 12 9
23 23 25 25 26 27 27 26 18 18 19 17 16 18 19 17 22 20 20 23 27 29 30 30 30 30 29 29 28 27 27 26 25 22 16 16 13 15 9 13 12 11 9 9
25 20 25 27 29 27 25 25 24 19 14 15 19 16 22 19 21 20 24 24 27 31 31 31 32 32 32 31 29 29 28 28 25 25 21 19 16 15 13 11 9 9 11 10
25 22 25 29 29 28 25 25 23 23 19 20 23 18 11 21 19 19 22 27 28 29 32 33 34 33 32 31 30 29 31 30 27 26 24 22 20 15 13 11 10 12 10 11
25 26 27 21 26 24 24 25 24 24 18 16 23 18 20 16 18 19 24 28 28 29 30 32 32 32 33 33 32 30 32 33 30 28 26 28 21 20 14 14 11 9 10 10
23 28 23 23 23 25 28 24 16 19 18 20 25 19 23 18 18 18 19 26 29 29 29 31 33 34 33 35 35 33 34 35 33 30 29 27 30 22 21 14 15 12 12 12
19 21 30 21 27 27 31 29 19 25 17 20 25 24 21 19 12 18 20 19 26 29 31 33 34 35 35 35 37 37 36 37 35 32 31 30 27 25 22 21 16 15 14 13
22 25 22 27 28 29 30 28 28 27 24 19 21 19 22 7 18 19 16 22 18 28 30 35 35 36 36 37 40 41 38 38 39 34 34 33 32 30 25 23 23 19 18 14
22 17 23 27 25 26 32 24 26 23 28 27 24 22 17 19 16 17 19 19 18 21 27 34 36 37 37 37 39 39 40 39 39 37 36 35 36 35 32 29 27 23 19 22
25 19 15 24 30 30 21 27 23 25 24 21 20 19 21 18 18 20 22 29 22 24 26 29 34 36 39 38 38 39 39 40 39 38 38 36 37 33 35 34 32 28 26 25
26 17 17 22 23 26 27 29 32 17 28 20 22 19 14 17 15 12 19 22 27 22 24 27 30 34 37 41 39 39 38 38 38 38 39 40 39 38 36 36 34 33 31 29
23 21 17 19 19 23 30 31 31 31 22 26 22 20 21 7 13 26 23 22 19 13 6 11 24 30 38 41 42 41 40 38 35 36 36 38 41 42 42 40 36 36 35 35
12 22 26 19 23 17 28 28 31 29 23 22 26 25 22 22 15 10 11 22 17 12 11 15 21 27 36 41 45 43 41 37 36 34 35 37 40 41 40 40 40 39 40 40
17 21 23 27 26 23 23 26 27 33 29 28 25 29 27 25 24 21 26 23 22 24 15 17 22 25 33 37 40 45 41 39 36 38 37 38 38 37 36 36 38 39 44 42
20 17 19 21 24 26 24 24 30 27 29 29 29 31 23 29 33 23 24 25 28 21 20 18 20 23 30 36 39 39 43 39 38 36 38 35 35 35 35 38 37 39 38 41
24 18 19 22 20 18 22 26 24 23 28 26 28 28 26 28 25 25 29 30 28 29 30 25 20 27 32 34 35 36 39 38 36 36 35 36 35 36 35 34 34 36 36 35
20 22 17 16 20 25 18 24 28 27 27 26 28 27 27 28 37 41 34 32 35 36 34 34 22 25 30 32 31 32 30 36 36 39 35 35 34 32 32 31 31 34 33 33
19 18 17 17 19 16 18 18 6 5 13 18 22 21 24 35 35 34 42 44 36 34 36 36 25 26 29 32 33 33 32 31 32 32 35 33 33 34 29 29 29 30 30 29
20 14 15 18 24 25 14 6 2 2 12 14 16 20 23 24 19 17 33 42 36 24 24 27 22 25 30 33 32 33 36 37 36 32 30 30 30 28 27 25 24 22 23 24
21 19 20 18 16 20 13 5 4 9 6 9 13 19 22 19 23 28 25 36 29 24 23 20 21 26 30 32 32 33 31 32 30 26 24 24 23 23 21 22 22 21 22 27
23 21 16 19 21 16 9 12 11 4 7 12 15 15 20 26 31 27 6 6 11 16 19 21 24 25 28 30 32 30 28 28 28 26 26 25 24 19 20 21 19 19 20 25
23 20 16 17 19 13 11 11 5 5 5 9 9 8 10 7 3 6 5 6 9 14 17 21 25 27 24 31 31 29 26 29 27 26 24 21 19 17 18 20 19 18 20 17
17 24 19 10 12 14 16 13 10 9 5 3 6 9 5 14 14 15 17 15 14 16 19 21 26 28 23 26 26 25 23 25 24 22 23 20 20 20 18 15 15 14 15 12
5 16 14 21 21 23 19 18 16 14 13 10 17 19 19 20 19 21 19 17 15 16 19 20 23 24 19 22 23 21 19 20 19 18 18 17 16 17 19 19 17 13 13 12
2 7 4 12 20 25 19 19 18 16 16 15 20 21 20 21 20 20 19 17 16 15 16 18 21 24 21 18 19 18 17 17 17 18 17 16 18 16 14 15 15 11 7 8

GFSCGP_850_spd_024.txt.gz
Wind_Speed
25 15 21 25 25 23 23 20 24 12 7 17 18 19 21 36 30 24 27 26 28 28 28 29 28 28 27 27 28 29 27 27 21 22 21 21 21 20 18 13 11 10 13 13
19 24 25 23 26 26 27 27 24 15 24 24 17 27 29 28 23 25 27 28 27 28 29 30 30 29 30 30 31 30 31 30 31 24 21 15 11 11 13 10 15 16 13 11
24 23 24 25 25 27 28 27 22 16 20 22 18 19 21 22 24 25 25 30 29 30 31 34 32 32 32 34 33 34 33 32 30 26 20 21 18 15 9 11 13 13 11 12
24 25 26 26 29 28 26 26 26 22 17 12 16 13 12 16 22 21 26 26 33 33 33 33 35 35 34 34 35 33 32 31 31 28 23 19 19 13 12 11 12 16 8 4
24 24 27 27 30 30 26 26 26 25 21 16 22 8 15 21 18 24 21 29 28 34 33 34 37 37 35 34 35 35 32 31 31 29 30 23 20 15 15 13 16 11 11 13
24 27 27 25 25 27 25 24 25 22 19 15 20 14 21 20 24 22 24 31 31 29 35 36 35 37 40 37 37 38 37 35 31 31 30 29 21 22 17 15 17 17 21 16
25 27 25 25 24 26 28 25 15 18 17 17 22 23 15 19 23 21 10 26 34 33 32 37 37 39 43 42 40 39 41 38 35 33 31 30 28 24 24 20 20 14 14 14
22 21 28 21 28 24 25 25 16 20 17 19 23 21 15 24 22 20 35 55 38 36 32 35 39 39 42 45 43 41 42 41 37 34 37 31 32 30 30 26 20 21 18 18
21 24 21 31 23 26 27 25 26 26 23 17 18 23 23 18 19 24 32 14 19 39 37 37 38 40 38 43 46 46 42 41 40 36 36 36 32 38 34 33 25 19 20 18
25 19 24 25 26 28 29 19 24 20 26 25 21 21 12 19 20 22 18 27 22 30 34 35 35 38 39 39 44 45 46 43 42 40 37 38 37 36 38 33 31 29 23 21
29 23 20 25 28 27 20 23 24 22 20 17 17 16 16 16 24 22 20 28 31 24 27 36 38 38 40 38 40 44 45 45 44 42 39 39 40 38 36 36 34 34 31 29
27 19 20 26 26 29 28 28 28 17 22 18 18 16 13 14 14 20 17 22 24 21 25 30 37 39 41 43 41 44 43 45 46 45 42 41 41 40 41 40 39 39 36 35
22 23 17 23 24 25 31 28 26 26 22 20 18 17 19 8 12 24 17 24 31 33 25 21 33 40 43 45 44 44 46 46 44 45 44 43 44 43 43 43 42 42 41 40
25 23 26 19 21 18 24 29 28 26 18 21 20 20 25 12 20 16 17 22 13 8 13 15 16 37 43 48 49 48 47 46 46 44 44 45 46 46 45 43 43 41 43 42
16 17 22 28 30 26 27 29 28 26 26 22 22 21 23 24 12 16 16 10 11 12 16 19 15 14 40 46 51 51 47 47 44 45 45 46 46 46 45 44 43 41 41 43
19 16 18 25 28 29 27 27 28 30 29 28 24 24 19 18 24 17 28 26 20 21 15 17 19 18 21 36 46 53 49 48 46 46 48 43 42 44 44 43 41 40 39 43
20 16 16 20 25 24 26 28 24 24 25 22 20 22 15 16 15 13 14 17 23 30 25 25 24 25 26 25 39 48 53 46 47 46 47 46 43 44 44 40 38 39 40 40
20 19 14 15 17 23 17 20 25 22 18 24 23 18 17 18 24 27 26 22 21 17 24 20 19 20 25 27 32 37 45 47 44 47 43 44 45 46 43 38 37 36 39 40
17 16 14 14 17 17 21 20 18 17 22 19 18 16 17 25 27 27 31 31 26 29 26 29 25 30 23 25 33 37 37 46 47 45 46 43 43 43 41 37 36 34 33 35
23 14 15 16 20 25 17 21 9 4 9 7 8 6 8 10 8 8 31 31 29 29 27 23 27 28 35 33 35 38 43 41 46 46 48 38 37 37 38 36 33 31 31 28
10 11 15 14 14 18 1 13 9 11 6 5 6 6 8 9 12 21 28 31 31 29 33 28 25 28 23 37 37 40 41 40 40 37 37 36 37 37 34 31 29 29 27 25
9 8 12 12 15 12 16 11 5 1 4 4 4 6 9 15 20 21 23 24 12 12 18 20 17 10 22 34 37 40 38 34 33 32 32 33 34 34 35 30 26 23 21 22
14 13 10 8 8 13 3 14 11 8 5 4 2 7 8 13 22 22 3 3 3 1 1 4 10 11 17 25 30 36 32 31 32 31 31 31 31 28 25 24 24 22 21 18
13 12 15 9 2 11 17 14 12 9 9 13 13 11 11 6 5 12 8 5 5 10 13 10 17 19 17 20 24 27 28 30 30 31 32 32 29 27 22 19 20 19 19 17
5 16 11 17 13 14 13 14 13 17 18 19 23 22 22 23 23 18 15 19 17 17 17 16 18 18 17 20 25 27 31 32 33 30 29 27 24 22 22 19 15 15 15 14
5 6 5 1 12 11 19 22 24 28 31 25 23 23 22 21 25 27 26 24 22 24 22 20 19 18 17 18 19 22 26 29 30 27 24 21 23 19 17 20 18 16 14 14

GFSCGP_850_spd_027.txt.gz
Wind_Speed
22 8 16 14 15 10 15 14 16 13 11 10 9 10 13 22 17 18 34 37 38 40 36 38 36 35 33 32 32 34 31 27 23 25 20 17 19 19 18 14 14 14 15 12
11 19 14 13 12 18 20 19 20 15 19 10 18 12 14 14 21 24 31 36 39 40 40 38 39 38 36 35 35 35 34 31 27 26 23 19 17 18 14 14 17 16 13 11
18 9 17 18 18 19 22 21 16 8 5 5 13 1 8 11 18 26 28 41 42 45 44 42 44 41 40 38 37 36 35 32 32 25 24 20 15 18 14 17 18 16 12 10
14 18 19 22 21 20 18 23 20 18 13 10 14 6 14 16 17 16 28 37 40 44 47 47 46 45 44 42 39 37 36 34 35 32 28 24 23 21 16 11 15 16 15 11
19 18 21 20 24 19 23 14 19 20 15 14 13 6 7 18 18 20 18 36 40 45 48 49 51 50 47 45 43 41 38 36 33 37 35 29 22 22 17 13 14 14 18 12
18 18 19 20 16 21 14 15 18 17 11 6 19 12 9 8 21 15 11 24 42 43 49 49 52 51 49 46 45 44 41 39 34 30 34 31 25 22 22 21 21 20 20 15
17 23 17 21 16 17 20 11 12 10 11 10 14 16 10 12 12 21 24 32 35 47 46 48 48 50 53 50 48 47 45 42 38 32 29 36 31 28 24 22 21 22 19 19
14 17 23 13 22 12 18 17 13 12 12 10 9 10 10 18 19 41 35 28 34 34 47 49 52 55 56 54 51 49 49 44 41 36 32 32 37 32 31 27 24 24 24 20
16 16 8 22 18 20 9 20 13 5 9 6 8 10 10 20 15 21 27 31 24 25 32 52 56 55 57 56 55 52 50 47 42 39 34 33 37 40 34 35 30 26 24 21
13 7 20 16 23 16 19 6 14 13 15 20 15 11 9 10 19 18 19 22 30 24 32 40 56 57 56 58 56 52 51 49 45 41 37 33 37 38 40 35 39 32 27 25
25 18 17 14 20 21 8 18 10 8 12 11 11 16 6 11 20 20 20 37 42 40 51 55 54 58 58 56 56 55 53 50 47 43 39 38 35 39 38 41 38 40 30 28
23 17 17 25 19 24 25 16 10 8 5 5 7 14 8 13 16 26 27 31 35 42 60 53 52 55 55 55 54 57 55 54 49 45 41 39 38 39 41 41 43 41 40 36
18 20 12 19 17 21 26 19 17 15 5 14 5 17 16 11 9 23 9 14 26 36 27 47 51 51 56 56 53 55 57 55 51 47 44 41 41 42 42 43 43 43 42 41
9 20 30 19 21 5 10 22 19 19 13 13 22 11 12 5 9 11 27 27 20 28 30 34 48 52 58 59 56 55 56 55 51 49 47 45 45 44 44 43 43 44 44 43
2 16 22 27 17 14 24 14 26 23 22 13 14 15 13 13 10 11 32 31 32 24 18 29 46 52 55 56 58 55 55 57 51 49 47 47 46 46 44 45 45 43 45 45
11 7 19 18 29 27 26 17 20 28 23 19 13 15 5 8 17 17 18 35 12 8 22 24 38 56 56 56 57 56 55 55 54 48 45 44 46 46 45 45 46 45 42 43
10 4 8 13 9 14 23 31 21 11 17 18 18 15 7 9 4 5 12 20 30 27 17 24 24 32 43 52 48 54 55 57 56 52 47 44 44 45 45 46 46 45 42 38
21 15 8 5 7 11 10 12 17 15 8 15 10 11 10 10 19 13 9 6 6 15 22 23 28 27 30 38 40 43 55 58 57 55 52 48 45 43 42 43 45 42 38 37
17 11 6 5 10 1 7 7 5 7 11 5 7 9 8 18 16 10 10 19 21 26 22 14 12 25 27 31 34 42 53 58 58 57 55 51 48 45 44 45 43 38 35 36
16 14 9 3 7 16 3 6 6 3 3 5 11 9 9 6 3 4 15 9 4 6 24 24 28 21 23 28 33 34 43 54 58 57 57 54 52 48 48 47 41 36 35 32
4 6 10 4 4 4 2 5 8 9 7 6 15 11 10 5 3 10 16 18 15 11 11 30 39 33 26 29 32 34 38 49 50 57 53 52 49 48 48 43 39 36 33 31
5 5 4 3 3 3 8 3 8 6 9 13 10 9 9 7 6 7 12 17 19 7 8 12 24 29 34 32 31 35 40 39 47 51 41 43 40 42 43 39 37 32 31 28
3 2 5 10 3 2 15 9 22 15 15 10 7 9 6 12 13 21 17 13 6 3 5 6 13 18 24 31 34 36 39 42 39 39 36 34 35 35 35 36 32 28 26 24
5 9 4 8 7 3 7 6 25 30 25 24 24 26 26 30 28 25 23 20 17 13 10 11 13 14 14 20 31 35 38 36 33 36 34 33 35 35 32 29 24 23 21 19
2 8 8 6 15 13 19 8 11 11 15 22 25 28 30 31 30 27 25 22 18 15 16 20 22 23 21 18 21 27 30 32 35 36 35 33 33 33 28 24 21 17 16 15
4 1 3 3 8 4 8 28 17 29 30 24 28 30 29 27 25 22 26 22 19 15 8 12 18 21 21 23 25 27 29 32 35 28 27 28 29 26 23 21 22 17 14 14

GFSCGP_850_spd_030.txt.gz
Wind_Speed
13 5 13 11 7 6 4 5 8 11 4 4 17 19 20 34 33 33 35 37 39 46 44 39 36 34 39 36 34 31 34 35 29 26 23 25 31 29 26 22 19 15 16 13
4 13 8 8 7 10 9 13 17 9 10 8 10 20 19 25 32 42 39 38 40 41 44 46 43 39 42 40 36 33 32 33 31 28 27 23 16 25 24 19 17 17 18 14
12 8 12 10 11 11 15 16 15 9 7 1 8 3 4 10 22 29 37 43 44 46 47 49 49 48 45 44 42 39 35 36 34 30 26 25 18 18 21 22 20 20 19 14
10 12 13 18 14 14 13 15 14 8 4 7 6 4 6 10 9 14 30 36 40 43 48 51 52 54 51 49 45 42 39 38 38 32 29 31 28 23 25 24 18 18 16 17
10 19 19 16 18 18 14 12 10 10 6 4 4 4 7 9 11 11 22 39 41 47 50 52 55 57 56 52 48 45 42 40 39 36 35 33 31 23 25 20 16 19 19 20
18 14 15 16 13 17 14 7 8 3 5 8 14 13 6 11 12 17 22 33 45 45 50 55 57 56 57 55 52 49 46 44 41 39 35 35 34 28 29 25 20 20 17 21
10 18 6 12 10 11 11 7 5 7 8 10 10 6 12 18 19 24 23 34 44 48 48 51 49 51 56 58 56 53 50 48 45 42 37 33 33 31 29 29 24 22 22 25
12 9 19 11 17 15 9 16 9 10 4 5 6 9 13 15 22 39 44 41 40 45 50 52 58 60 61 60 59 57 54 51 48 45 40 34 31 34 31 29 30 27 26 23
8 13 4 15 13 17 10 10 12 6 3 2 4 7 6 10 12 25 34 36 39 48 49 56 61 62 62 62 62 60 57 53 50 47 42 37 33 35 36 32 29 29 25 22
8 4 12 18 18 17 18 7 4 2 15 17 5 6 8 8 14 14 22 33 43 45 51 53 53 61 62 61 62 60 58 56 51 48 44 38 35 35 39 35 36 33 28 25
19 9 10 5 15 17 11 11 3 6 8 12 7 16 9 10 10 14 22 41 45 45 49 52 57 59 62 61 60 61 59 57 55 50 46 41 36 36 38 41 38 38 35 31
13 15 16 25 12 12 20 15 11 9 7 6 16 25 3 10 9 10 24 41 47 38 44 47 53 52 54 56 57 60 59 58 56 51 47 44 39 37 38 41 43 41 41 39
8 6 10 9 14 16 8 13 19 5 5 18 9 8 7 5 6 16 14 19 29 31 40 32 38 44 53 57 59 59 59 59 56 54 50 46 44 41 39 41 42 45 43 43
13 6 12 19 13 6 8 17 12 19 15 11 22 5 6 1 7 9 25 35 38 44 30 30 36 41 52 57 60 61 59 59 57 56 53 49 47 43 41 41 43 44 44 46
6 6 4 13 15 21 14 12 21 22 24 22 16 13 10 9 9 9 29 35 30 42 34 31 38 49 52 57 58 61 59 59 59 58 55 53 48 43 43 44 44 44 45 45
6 5 7 7 10 22 24 20 19 23 23 19 6 7 10 14 20 12 21 29 33 37 35 33 43 48 58 59 59 63 61 60 59 60 57 52 50 49 48 47 45 44 44 44
4 4 8 6 6 18 20 31 17 11 16 17 15 10 9 8 8 11 18 24 27 38 31 19 31 50 56 63 65 63 60 60 59 60 58 56 52 52 51 48 47 46 45 43
9 8 4 6 7 14 24 18 20 10 7 10 12 10 12 13 25 19 15 16 31 24 20 15 17 46 59 63 62 60 59 59 59 60 59 57 54 52 51 50 48 47 45 43
19 12 4 3 3 7 4 8 13 9 11 8 9 11 12 24 9 4 17 17 19 14 14 13 17 22 41 48 50 56 56 57 58 58 58 59 56 52 50 50 49 46 43 40
22 18 10 6 4 6 6 5 13 7 4 5 10 9 9 10 6 4 8 9 14 21 21 21 15 27 28 37 47 49 48 56 58 58 57 57 58 55 50 46 46 45 39 33
3 3 8 12 10 9 8 6 6 8 6 1 5 9 9 6 8 17 10 7 5 6 16 27 26 30 33 26 40 46 50 53 51 55 52 54 55 58 52 48 45 43 38 32
5 5 3 4 5 8 27 15 7 6 8 17 15 18 22 18 14 13 12 9 3 3 6 7 14 26 29 30 31 36 47 42 41 50 54 53 54 57 53 50 46 42 40 34
7 5 5 5 5 11 21 10 11 25 23 11 16 21 26 26 23 23 23 19 16 10 7 8 12 15 25 28 32 39 39 41 46 51 51 51 50 49 49 49 48 44 38 37
10 7 3 4 1 9 25 14 22 29 27 27 29 27 30 32 27 26 22 17 14 12 10 12 16 19 21 27 33 38 40 45 51 51 50 48 48 44 45 46 45 43 39 36
2 4 6 2 10 16 19 22 11 28 27 29 31 31 29 31 30 27 24 19 14 9 6 5 8 13 19 23 28 35 42 42 42 48 48 46 44 43 44 44 44 37 31 39
3 2 5 1 5 5 8 17 28 36 29 23 28 32 29 29 30 27 25 20 15 11 8 5 3 1 3 8 15 19 28 35 39 45 44 43 46 43 40 40 28 21 18 10

GFSCGP_850_spd_033.txt.gz
Wind_Speed
10 5 11 12 6 6 4 3 5 3 1 2 4 7 21 30 28 30 33 35 38 42 48 49 45 42 39 38 37 36 37 33 31 32 30 31 30 27 25 21 17 13 13 12
3 15 9 9 9 9 6 7 13 3 7 4 7 10 19 23 33 42 40 38 39 39 35 47 47 45 44 42 40 39 39 34 32 33 30 29 28 31 29 27 24 18 15 17
12 6 10 9 7 8 6 10 11 9 2 3 5 2 12 21 20 24 31 40 41 42 44 44 46 45 46 47 44 42 40 37 34 32 31 29 26 25 30 31 28 23 19 16
7 8 9 7 8 9 9 7 7 5 4 3 6 4 7 17 18 17 25 32 37 40 43 46 50 48 48 48 46 43 42 38 36 37 34 33 31 30 25 26 27 22 21 19
10 14 17 13 19 9 10 6 6 3 4 1 5 0 6 17 19 21 23 35 39 43 46 50 54 56 53 50 50 47 43 41 38 37 37 35 34 31 26 24 25 22 23 19
17 9 14 11 9 14 4 3 4 1 3 6 16 8 7 12 25 24 26 38 43 43 47 52 56 57 57 53 52 50 48 46 42 39 38 38 36 32 30 25 27 26 22 22
8 20 4 7 9 6 5 7 3 3 4 10 9 6 14 9 21 26 25 40 46 47 47 52 53 47 52 56 57 55 53 51 47 44 40 39 38 33 30 28 29 26 25 26
8 5 18 7 11 11 8 13 6 7 3 6 4 9 8 15 16 30 41 46 47 45 48 52 58 57 58 59 60 59 57 55 52 49 45 41 38 34 30 29 28 32 29 26
11 10 5 13 7 16 6 11 12 3 2 2 5 8 5 9 11 12 21 26 37 44 48 52 60 58 58 60 61 63 62 59 56 52 48 45 41 37 34 29 29 34 31 27
6 2 8 9 9 9 14 8 4 2 11 12 4 7 7 11 17 11 13 20 34 42 45 53 54 60 58 58 60 61 61 61 58 54 50 47 42 40 37 30 33 34 36 32
1 3 4 7 8 21 5 8 3 6 6 7 3 11 8 10 13 12 15 27 37 42 48 54 56 51 57 59 58 60 60 60 60 56 52 49 45 43 41 34 35 36 34 32
6 3 15 18 6 15 15 11 9 5 12 8 13 11 3 17 14 9 15 27 37 46 46 44 53 51 51 53 57 60 58 59 59 58 53 49 45 45 44 38 37 40 38 36
8 4 1 7 3 4 10 11 16 15 2 19 10 6 7 9 7 15 19 26 32 37 40 40 48 44 47 49 55 59 58 57 58 57 58 53 49 48 47 42 39 41 42 41
4 3 3 7 5 2 7 9 17 17 11 18 19 5 3 6 11 10 15 23 25 33 42 44 48 45 51 50 53 56 58 58 56 56 57 58 53 47 48 45 42 42 43 44
4 2 4 7 14 16 15 13 25 21 22 16 15 13 13 9 10 11 19 17 21 26 38 44 50 53 49 47 47 51 53 56 56 55 56 57 55 47 47 47 47 44 44 45
3 3 5 6 11 13 16 18 24 30 23 13 11 7 9 16 24 12 24 28 21 29 40 47 47 45 43 42 47 49 52 55 55 54 54 56 54 52 50 51 50 48 47 45
2 2 5 4 10 12 11 28 21 17 17 19 19 9 9 8 9 14 30 34 30 30 36 46 48 44 48 49 47 47 49 54 55 53 54 54 54 52 53 54 53 51 51 48
5 4 3 5 6 8 13 9 17 19 13 8 5 12 12 16 29 35 28 29 28 25 31 37 47 43 40 39 43 45 50 54 55 53 54 55 55 52 52 55 55 54 53 52
19 7 3 3 4 10 16 8 4 9 11 7 16 11 8 25 8 9 27 24 22 21 21 32 35 37 39 44 45 45 48 52 53 54 53 54 55 54 55 55 55 57 56 55
20 19 7 4 4 7 2 13 24 14 17 17 13 12 10 10 7 11 20 25 21 15 13 29 29 24 25 34 33 38 43 47 51 53 54 55 54 57 56 56 55 55 57 56
9 9 11 10 5 8 6 21 14 7 13 6 15 15 11 8 15 30 20 18 18 19 17 21 22 19 18 28 30 31 36 43 42 46 51 55 56 56 57 56 57 55 54 51
8 9 8 9 8 9 12 10 8 11 31 21 17 22 21 17 16 23 22 19 16 15 12 9 11 17 18 22 32 37 38 39 42 35 49 55 55 56 55 55 55 55 51 47
10 6 9 7 7 3 5 7 25 26 23 24 31 27 37 31 26 22 18 16 15 13 11 9 8 8 11 18 23 33 39 38 42 50 51 51 52 55 55 54 51 55 55 52
9 5 6 7 4 4 12 26 26 24 16 10 28 30 33 33 26 24 20 16 14 11 7 4 4 5 7 8 15 26 31 36 42 45 48 50 52 54 53 53 50 48 42 39
13 7 10 6 3 4 15 21 25 17 16 21 25 28 26 29 27 26 22 18 15 11 7 3 1 4 9 12 14 15 19 27 31 36 42 47 48 43 41 41 40 43 43 42
8 10 12 6 5 7 11 16 10 7 25 28 31 31 27 28 27 26 25 20 16 14 11 7 5 3 6 10 14 15 13 12 14 18 24 26 30 32 34 28 19 25 35 33

GFSCGP_850_spd_036.txt.gz
Wind_Speed
10 5 13 10 5 5 5 4 4 2 2 4 7 6 9 23 26 28 33 34 36 42 44 39 38 38 36 35 33 32 31 30 29 32 32 31 29 25 21 19 18 16 13 12
5 17 10 9 7 8 5 5 8 4 6 2 4 8 10 17 29 37 36 33 38 38 36 42 41 41 41 38 36 35 34 34 33 33 30 30 29 28 26 23 21 18 15 12
19 5 12 12 7 10 5 13 6 5 4 2 4 6 7 13 5 22 27 36 34 36 40 42 44 45 44 44 42 40 37 36 37 36 33 31 30 30 30 29 27 24 21 17
6 8 18 8 13 12 9 6 6 7 4 4 3 5 5 13 20 16 24 31 34 41 40 41 44 47 47 46 44 43 42 40 38 37 37 35 32 30 29 29 30 30 27 22
11 15 15 17 14 10 8 8 9 6 6 2 3 1 6 10 14 17 22 32 37 41 44 47 47 48 49 46 45 44 44 43 41 39 38 36 35 30 26 23 22 24 25 24
8 6 14 11 7 11 8 4 6 5 4 7 10 9 5 8 19 20 21 32 37 39 44 47 48 48 50 49 48 47 47 47 46 43 41 41 38 34 29 27 25 24 26 26
5 13 3 6 8 5 7 8 2 2 3 11 8 8 14 10 16 22 25 38 42 43 43 47 50 47 51 52 52 49 49 50 49 47 44 41 39 37 30 28 28 26 29 28
10 6 18 6 10 11 9 9 6 8 4 7 7 9 7 11 16 29 33 42 39 38 44 49 58 55 55 53 53 54 52 51 52 49 47 43 40 38 33 31 27 28 31 28
8 10 3 9 6 17 6 11 11 5 2 2 5 6 6 5 11 16 28 29 34 40 44 51 55 59 58 57 55 56 54 53 52 51 49 47 44 41 37 33 30 31 30 31
3 1 6 18 6 8 10 9 4 1 6 6 5 4 6 10 13 14 9 23 33 38 44 48 53 54 59 60 57 55 55 53 51 50 52 51 47 43 38 34 33 31 31 31
5 4 3 9 11 18 4 6 3 6 6 7 0 6 8 10 14 18 19 31 37 41 47 51 55 57 55 56 57 56 55 55 55 53 53 53 51 48 44 39 34 33 32 32
1 3 7 6 2 9 21 9 7 6 8 6 4 7 4 10 11 13 20 28 39 37 39 44 49 49 47 53 55 55 55 53 55 53 52 53 51 50 47 43 37 35 33 34
6 2 2 4 8 3 5 10 12 10 3 12 8 7 6 4 7 15 17 27 31 31 32 35 40 44 48 50 52 53 53 53 54 53 53 53 53 52 50 45 40 39 36 36
3 2 3 3 2 4 6 7 8 17 14 15 18 9 3 6 9 10 22 31 30 28 24 28 36 43 47 49 51 51 51 51 52 52 52 52 53 52 49 46 43 40 40 39
3 0 2 3 10 7 12 15 14 13 22 15 13 18 10 9 11 19 33 30 25 25 25 24 30 40 46 49 50 50 50 49 49 50 50 52 52 50 47 47 45 41 42 42
5 2 2 3 9 10 11 14 16 15 10 11 18 9 9 19 23 14 25 25 24 25 22 19 25 35 44 47 50 52 50 48 46 45 47 50 51 50 49 49 48 45 44 46
3 2 2 4 4 10 16 10 15 9 8 9 16 10 7 9 10 17 30 31 32 33 34 33 26 32 39 45 47 50 48 48 47 44 42 46 48 49 49 49 51 51 48 47
4 1 1 4 2 8 4 9 7 18 17 15 8 12 15 17 29 37 39 42 42 42 43 38 32 31 36 41 45 47 45 48 46 47 47 46 46 45 47 49 52 53 53 51
16 5 3 4 6 13 18 5 4 4 8 13 14 9 10 30 29 16 32 41 37 33 29 28 24 29 34 39 42 46 48 47 48 50 48 47 45 45 46 49 50 53 57 56
13 14 6 2 5 8 2 2 8 4 6 7 7 18 15 10 8 10 32 26 29 29 22 21 17 19 27 37 43 43 44 46 48 48 45 45 44 45 46 48 48 50 53 57
4 6 16 13 7 6 5 5 7 8 7 17 15 20 19 11 19 36 29 28 27 25 23 20 15 16 21 29 36 42 43 43 42 44 44 44 43 44 44 45 48 50 51 52
7 7 6 7 6 17 1 4 5 3 15 19 25 31 26 31 31 31 21 13 19 22 22 19 17 19 20 18 20 25 29 26 34 38 40 40 40 41 45 47 48 48 47 53
6 9 4 9 6 6 12 16 13 12 13 18 28 36 33 31 38 28 21 19 17 18 16 15 15 15 15 14 16 19 23 26 26 30 32 33 35 37 39 40 41 43 42 44
4 5 4 6 12 12 14 12 11 8 10 19 23 23 22 26 25 26 23 20 17 17 18 16 15 12 10 5 7 14 18 21 23 23 26 25 27 29 29 30 31 33 33 34
6 4 4 8 21 17 19 9 9 6 7 8 4 8 16 29 27 30 30 27 23 22 21 19 18 16 15 12 10 9 6 5 7 13 13 13 18 22 23 24 26 24 27 31
9 10 8 9 10 14 8 10 6 3 3 2 14 19 22 35 36 33 31 27 24 23 21 21 20 17 15 14 13 12 11 10 7 4 4 6 8 12 16 18 9 17 27 27

GFSCGP_850_spd_039.txt.gz
Wind_Speed
19 13 22 24 18 16 8 12 10 10 6 8 14 14 12 19 29 28 29 31 33 36 33 30 32 30 31 34 33 31 31 31 31 31 31 30 28 28 25 21 18 17 15 13
8 24 20 15 16 17 18 17 17 10 7 4 6 10 6 15 27 32 32 33 35 31 29 32 33 33 34 38 36 33 31 30 31 32 32 32 29 29 26 21 19 18 17 14
25 7 19 19 17 19 23 24 17 8 2 4 5 14 7 12 18 24 30 32 30 34 36 34 35 37 37 40 39 37 34 32 32 32 32 33 32 31 29 29 25 23 20 17
20 18 24 24 26 22 23 18 17 16 9 11 6 14 7 12 17 18 26 30 34 34 33 34 36 36 40 43 40 39 37 36 34 34 35 36 34 33 31 29 28 26 24 22
17 24 20 26 27 23 20 14 15 15 13 12 13 8 14 5 12 19 25 33 35 37 37 37 39 45 46 44 43 42 39 38 37 36 38 37 36 33 28 26 25 25 26 27
19 9 24 16 20 22 12 13 8 5 9 15 21 14 17 13 16 16 25 31 33 35 38 36 36 36 39 38 41 43 43 41 41 41 40 40 39 36 33 30 27 24 24 26
21 14 15 19 16 20 20 18 7 10 11 15 15 14 20 9 17 19 20 34 37 39 38 38 36 36 40 43 45 46 46 45 43 44 43 42 40 38 36 32 28 27 25 24
19 16 20 19 20 13 28 23 9 14 15 13 7 14 13 17 22 26 23 29 32 32 36 39 41 41 45 47 46 47 46 45 45 45 46 44 42 41 37 35 34 29 28 25
18 19 11 20 14 21 17 24 23 10 1 4 13 14 10 9 20 18 25 23 25 34 38 41 43 47 51 51 50 47 47 46 46 45 45 46 45 43 42 36 31 32 28 28
5 7 12 26 17 24 15 18 11 14 13 12 8 12 13 19 18 21 18 23 28 29 32 36 40 44 50 53 53 52 48 46 46 45 44 45 46 45 42 39 35 32 31 28
2 5 5 16 22 23 10 19 11 11 9 9 8 9 10 16 20 21 22 29 28 29 33 35 40 45 49 49 50 54 53 50 48 48 45 45 47 49 46 44 38 35 31 31
4 2 11 16 13 21 25 18 23 11 13 13 6 8 2 12 11 17 25 28 29 30 32 33 34 37 36 46 49 54 54 53 52 51 48 46 46 46 48 46 42 38 36 33
5 3 11 7 11 9 22 22 23 21 11 18 12 5 8 7 5 11 14 19 18 22 22 26 24 31 39 44 48 51 50 50 50 51 53 52 50 50 49 47 44 42 40 37
4 1 9 13 6 3 5 10 25 25 17 17 21 16 11 5 9 12 17 22 17 18 17 23 27 29 34 40 45 47 48 46 46 48 48 51 51 52 49 45 45 44 43 41
5 1 4 5 7 6 9 10 10 17 22 23 22 24 19 16 14 11 15 13 16 18 14 21 24 25 30 36 41 43 44 47 47 46 47 46 46 48 48 47 46 45 46 44
6 1 2 7 9 10 14 13 14 14 16 16 22 25 8 15 26 28 28 28 20 25 24 24 26 24 25 32 38 40 43 46 47 48 46 44 45 46 45 45 45 45 47 47
4 2 2 6 7 12 15 21 17 14 13 15 22 18 14 17 13 19 27 29 29 24 23 22 22 22 21 22 26 36 40 44 48 48 46 47 46 46 45 46 46 46 48 48
4 4 3 5 2 10 10 4 6 13 17 21 22 19 16 17 24 28 35 32 34 39 38 38 38 37 34 31 30 29 36 41 45 46 46 47 48 47 47 46 46 48 48 50
17 9 4 5 12 16 18 7 3 5 13 7 16 21 19 25 27 26 27 35 46 47 45 42 38 32 33 33 33 34 36 39 40 41 44 44 44 46 47 48 47 48 50 52
14 14 7 5 8 12 2 9 14 5 15 6 3 7 14 21 15 12 25 36 43 45 45 40 34 33 24 26 30 33 36 38 38 38 41 41 44 46 47 47 47 48 49 51
5 8 16 14 10 8 11 6 1 12 1 5 5 9 14 11 16 22 29 26 34 31 28 28 28 27 26 25 24 28 31 34 30 32 35 39 40 41 42 39 36 32 32 31
6 6 7 11 10 21 8 15 11 5 8 14 17 18 19 21 29 28 36 31 27 26 23 24 26 25 24 19 18 25 29 28 31 31 30 33 35 33 29 34 30 25 30 32
6 10 5 9 8 14 14 19 31 25 23 27 23 28 24 29 30 29 27 20 19 18 19 22 23 20 19 19 17 21 25 26 24 19 19 20 22 23 26 26 22 18 38 43
8 12 8 12 17 22 32 39 32 28 28 27 24 29 28 33 32 30 23 19 18 16 16 16 18 18 13 12 12 12 12 11 12 12 12 13 16 18 21 21 22 24 29 34
11 7 8 15 19 25 33 34 40 34 30 33 29 27 32 28 31 24 19 19 19 19 19 19 20 24 24 20 18 15 12 8 7 11 12 12 15 15 18 21 23 26 30 32
20 19 12 13 15 16 22 19 18 27 31 30 23 34 25 21 17 18 23 25 26 25 25 26 25 25 25 21 18 16 14 11 8 7 7 7 9 12 15 16 18 21 23 26

GFSCGP_850_spd_045.txt.gz
Wind_Speed
29 19 26 30 28 25 22 22 25 22 16 20 19 18 20 23 22 20 26 27 29 30 30 31 31 30 29 29 29 28 28 27 25 23 20 20 19 17 16 15 16 15 14 11
18 29 27 25 27 28 27 24 22 22 15 13 19 20 18 16 21 21 23 28 29 29 30 32 33 33 32 31 31 31 31 30 31 24 23 20 19 17 16 15 17 17 13 13
28 20 27 27 25 27 27 27 21 18 20 19 15 19 18 20 17 23 20 28 28 32 33 34 35 36 34 34 34 34 34 33 33 26 23 22 20 20 18 17 17 16 15 13
30 25 29 27 28 26 27 26 23 19 19 17 22 16 20 18 20 18 24 28 31 32 34 35 36 37 37 37 35 34 36 36 34 34 24 26 24 21 20 18 17 16 17 15
31 24 22 29 25 27 24 21 23 22 18 17 19 19 18 25 23 23 21 26 31 33 36 37 37 38 38 36 35 35 37 36 34 34 33 27 28 22 17 18 18 21 18 17
29 24 23 21 25 22 22 20 21 22 18 19 25 20 18 16 25 27 25 28 27 33 35 36 36 35 36 36 35 34 36 37 36 35 35 34 29 27 22 20 19 18 18 18
28 32 23 23 23 23 20 20 13 16 18 17 25 23 19 18 19 19 19 29 28 30 34 36 37 37 37 38 37 36 37 39 37 37 35 38 37 31 28 25 21 19 18 17
22 24 34 22 28 25 27 25 16 22 19 18 24 27 24 25 13 18 28 27 30 30 34 36 37 39 39 41 43 42 41 42 41 41 40 37 38 32 31 29 22 21 19 17
25 30 33 30 25 27 23 27 26 23 23 15 20 24 26 23 27 20 17 28 31 33 34 36 38 39 39 41 44 46 43 44 44 44 43 42 40 39 34 32 31 25 22 19
28 19 30 32 25 29 28 24 23 18 22 20 16 16 17 21 18 25 25 20 29 32 33 36 38 39 40 40 46 48 49 47 47 46 46 45 44 43 41 36 35 29 29 26
32 23 17 27 28 28 25 22 27 21 18 15 12 9 18 19 22 22 21 35 29 30 34 36 36 39 41 41 40 45 48 51 47 47 47 47 47 46 43 44 42 37 33 31
37 13 21 31 28 27 27 29 28 17 24 18 12 2 11 10 8 17 23 27 34 31 32 32 35 34 36 39 39 41 43 45 50 47 47 49 48 47 47 46 45 43 40 38
5 15 17 23 25 26 31 31 25 27 19 20 16 6 8 6 2 16 18 25 27 28 28 30 31 33 34 37 41 41 41 42 41 43 43 46 49 49 49 47 45 44 42 41
10 17 24 19 25 23 29 31 30 25 20 18 20 15 12 6 7 5 7 16 22 21 22 23 28 32 33 32 37 40 40 39 39 39 40 43 47 49 48 47 46 45 44 42
7 15 20 26 13 11 30 31 31 31 24 25 15 19 14 13 13 13 13 9 6 6 6 9 13 15 17 26 31 37 40 38 38 42 43 45 46 47 46 47 45 45 46 46
8 12 19 22 18 7 13 22 31 29 28 23 23 15 17 13 11 8 9 9 6 6 11 10 14 18 20 27 29 32 36 41 38 41 46 44 44 44 47 47 47 46 46 47
12 10 11 15 18 11 17 21 19 26 26 25 21 19 11 9 8 4 7 7 6 8 8 11 12 12 17 19 24 27 31 33 39 43 40 44 44 46 46 46 47 51 52 49
12 10 8 11 17 21 13 17 16 13 14 14 13 9 10 8 9 13 13 12 14 14 12 12 13 15 14 16 20 22 21 28 35 39 46 41 45 44 45 45 46 44 42 45
13 10 7 10 14 7 21 14 17 23 19 15 14 13 9 11 11 13 13 13 15 18 18 15 17 18 17 17 18 19 18 22 29 36 43 46 41 43 44 45 41 39 39 39
14 12 11 8 14 19 7 11 1 2 10 15 21 17 15 12 11 12 14 13 11 10 11 11 13 20 19 16 21 20 19 25 31 33 35 37 39 41 44 42 41 39 39 39
12 12 14 13 9 11 5 8 6 11 5 10 4 6 11 7 8 13 12 12 12 14 16 17 16 15 16 19 23 23 25 28 30 27 28 33 37 39 40 39 38 37 36 32
11 13 12 14 17 20 11 2 6 8 6 10 12 13 9 8 11 15 17 17 17 19 20 19 20 22 21 19 20 26 30 30 31 29 29 31 34 35 32 37 35 35 34 34
11 11 10 12 13 9 12 14 14 6 5 9 11 11 12 14 16 18 18 19 20 21 21 19 19 20 17 16 17 22 27 25 29 29 32 32 32 32 32 32 34 30 30 28
13 12 13 15 17 16 19 15 15 16 17 19 19 18 19 22 22 22 20 21 23 23 23 20 16 16 15 14 15 21 20 21 26 29 29 28 30 30 32 25 24 24 25 26
15 16 17 20 22 26 29 25 24 24 25 27 28 26 25 24 23 23 24 24 24 26 25 15 14 15 13 13 12 12 14 17 20 22 20 23 22 24 22 23 23 22 22 26
20 21 17 18 24 22 22 24 26 29 31 33 30 28 28 29 30 27 28 26 24 25 17 17 15 10 13 17 13 9 11 14 17 18 18 19 19 20 20 24 26 27 27 27

GFSCGP_850_spd_048.txt.gz
Wind_Speed
30 18 25 30 26 23 24 20 24 22 22 23 20 16 20 12 19 33 33 32 32 34 34 34 32 32 31 33 33 32 31 28 29 24 23 22 21 19 17 15 13 14 15 11
21 28 26 27 25 27 27 24 25 23 25 14 21 17 26 25 42 33 31 31 33 31 34 36 35 35 35 36 35 35 35 33 29 28 24 23 20 18 16 16 16 19 18 13
28 19 26 27 26 27 28 27 24 21 21 24 18 16 20 27 21 31 31 46 34 34 35 36 38 38 37 38 39 38 37 36 36 30 26 20 19 19 20 17 17 20 18 13
28 29 29 27 29 26 27 27 26 25 19 17 22 16 20 16 21 25 36 34 33 35 36 37 40 39 40 39 41 40 38 40 38 36 27 30 29 26 24 21 18 19 16 14
32 27 31 29 26 28 25 25 26 26 20 18 20 17 14 21 21 21 23 28 35 36 38 39 40 42 42 40 40 41 39 39 39 38 33 28 28 28 21 22 20 19 22 21
32 31 27 27 24 27 24 22 25 23 18 17 23 19 17 17 21 19 21 27 38 38 40 40 40 39 40 40 41 40 40 39 39 37 39 32 31 28 26 22 24 22 22 21
28 33 29 26 25 26 21 22 14 15 17 17 22 20 13 19 24 23 22 30 31 41 41 40 41 41 43 42 42 41 41 41 39 39 38 40 33 29 29 26 24 24 24 23
23 26 35 21 28 25 28 26 15 22 18 17 22 23 20 21 20 36 35 34 32 34 41 44 44 44 45 44 45 44 45 43 40 39 42 38 41 36 32 32 26 27 24 23
23 30 26 29 25 25 26 26 24 22 20 16 19 20 23 24 23 19 16 32 34 35 38 43 44 46 46 46 47 49 47 46 42 41 41 41 38 42 40 36 34 26 26 23
31 17 32 33 26 29 28 22 21 17 21 20 19 23 19 22 22 22 18 18 29 35 36 41 43 45 46 49 51 49 49 49 45 41 41 42 40 39 40 37 38 34 27 25
31 26 23 29 33 27 22 21 25 20 16 15 14 14 15 25 25 21 22 23 23 32 38 39 42 44 47 48 47 49 48 48 47 44 42 44 45 42 40 40 38 36 36 30
19 22 21 25 28 32 29 28 25 12 21 15 14 5 12 5 23 20 18 30 30 27 38 38 40 43 44 44 46 49 48 47 50 48 45 44 46 46 44 43 42 40 37 34
12 14 20 26 23 31 31 30 29 22 19 20 14 7 5 11 12 21 21 20 32 25 25 38 39 42 45 45 45 46 47 48 46 43 45 45 44 47 47 45 44 44 42 40
7 8 20 20 21 19 29 30 29 28 17 17 17 7 7 7 4 3 15 21 20 28 28 36 39 41 43 45 46 43 45 45 44 44 43 44 45 46 46 46 45 44 45 43
10 13 18 27 24 22 27 27 30 30 21 22 18 18 13 11 10 5 9 19 24 25 23 25 31 41 43 42 45 46 43 43 43 44 45 46 44 44 44 44 45 45 44 44
18 9 11 17 22 21 17 31 30 29 29 23 25 17 17 15 16 11 14 13 14 12 11 9 6 8 17 38 40 44 46 42 43 44 47 46 44 43 44 45 46 45 45 43
13 10 7 16 18 22 19 15 27 26 26 24 20 15 19 20 18 14 13 8 9 5 6 8 7 8 11 13 33 38 44 44 40 43 43 46 47 46 46 45 45 47 47 45
12 12 9 9 12 18 10 12 16 14 25 24 19 15 11 17 23 21 13 6 3 3 1 3 7 11 12 18 18 27 31 35 40 41 41 41 45 47 46 45 45 45 47 49
11 10 7 5 8 7 12 14 18 11 9 5 18 18 9 12 13 15 12 10 8 8 7 8 11 14 15 19 22 28 30 32 35 38 43 42 42 45 47 48 47 46 45 47
11 10 8 9 7 12 9 16 5 12 12 9 4 2 7 7 6 7 13 10 8 7 6 6 7 9 9 6 13 28 32 33 33 30 31 39 44 43 47 49 48 46 46 46
11 8 10 9 6 4 11 16 4 10 5 18 24 15 3 5 11 13 11 11 9 9 10 11 11 14 14 12 11 11 13 29 27 25 29 30 34 42 45 45 45 45 44 43
9 12 11 12 13 11 20 11 6 7 16 19 22 23 21 16 14 13 12 11 11 12 13 12 13 15 19 17 16 21 24 20 19 27 30 31 30 33 41 42 44 43 41 40
5 6 6 8 12 11 18 18 18 13 9 12 14 15 13 14 14 13 14 16 15 17 17 16 16 19 17 15 17 21 27 26 31 27 27 32 31 31 32 35 40 37 38 39
15 15 8 11 16 17 15 14 15 12 11 10 11 13 13 14 17 18 16 18 19 20 21 22 20 21 19 14 16 21 27 28 27 27 28 30 31 31 29 30 32 34 35 37
14 19 16 17 17 18 26 23 21 20 17 16 16 16 16 17 19 16 19 23 24 24 22 22 26 17 15 16 12 15 14 17 21 23 27 29 29 29 30 29 27 29 30 31
20 18 14 16 28 26 25 24 22 25 27 25 22 23 21 18 18 19 21 21 23 27 24 25 23 19 19 18 19 20 15 14 17 21 23 25 25 26 27 31 32 30 31 31